This is the latest recevied weather packets stored in our database for station/object NR0A-4. If no packets are shown the sender has not sent any weather packets the latest 10 day(s).
| Time | Temp. | Humidity | Pressure | Rain* | Wind** | Luminosity | Snow |
|---|---|---|---|---|---|---|---|
| 1787868004 | 27.78° C | 56% | 1018.9 hPa | 0 mm | - | 485 W/m² | - |
| 1787867704 | 27.78° C | 54% | 1018.9 hPa | 0 mm | - | 482 W/m² | - |
| 1787867404 | 28.33° C | 55% | 1018.9 hPa | 0 mm | - | 492 W/m² | - |
| 1787867105 | 28.89° C | 52% | 1018.9 hPa | 0 mm | - | 513 W/m² | - |
| 1787866805 | 28.33° C | 53% | 1019 hPa | 0 mm | - | 534 W/m² | - |
| 1787866504 | 28.33° C | 51% | 1019.1 hPa | 0 mm | - | 536 W/m² | - |
| 1787866204 | 28.89° C | 52% | 1019.1 hPa | 0 mm | - | 555 W/m² | - |
| 1787865904 | 28.33° C | 48% | 1019.2 hPa | 0 mm | - | 571 W/m² | - |
| 1787865604 | 28.33° C | 51% | 1019.2 hPa | 0 mm | - | 179 W/m² | - |
| 1787865311 | 28.33° C | 51% | 1019.3 hPa | 0 mm | - | 158 W/m² | - |
| 1787865004 | 28.89° C | 48% | 1019.4 hPa | 0 mm | - | 185 W/m² | - |
| 1787864705 | 29.44° C | 50% | 1019.5 hPa | 0 mm | - | 626 W/m² | - |
| 1787864404 | 29.44° C | 53% | 1019.4 hPa | 0 mm | - | 645 W/m² | - |
| 1787864105 | 28.89° C | 51% | 1019.6 hPa | 0 mm | - | 638 W/m² | - |
| 1787863804 | 28.89° C | 50% | 1019.6 hPa | 0 mm | - | 663 W/m² | - |
| 1787863504 | 28.89° C | 51% | 1019.7 hPa | 0 mm | - | 671 W/m² | - |
| 1787863205 | 28.89° C | 49% | 1019.8 hPa | 0 mm | - | 534 W/m² | - |
| 1787862905 | 28.89° C | 53% | 1019.8 hPa | 0 mm | - | 475 W/m² | - |
| 1787862605 | 28.33° C | 53% | 1019.8 hPa | 0 mm | - | 668 W/m² | - |
| 1787862304 | 28.33° C | 55% | 1019.7 hPa | 0 mm | - | 698 W/m² | - |
| 1787862005 | 28.33° C | 53% | 1019.8 hPa | 0 mm | - | 698 W/m² | - |
| 1787861704 | 28.33° C | 52% | 1019.8 hPa | 0 mm | - | 705 W/m² | - |
| 1787861405 | 28.33° C | 54% | 1019.9 hPa | 0 mm | - | 703 W/m² | - |
| 1787861104 | 28.33° C | 53% | 1019.8 hPa | 0 mm | - | 714 W/m² | - |
| 1787860804 | 28.33° C | 49% | 1019.9 hPa | 0 mm | - | 724 W/m² | - |
* Rain latest hour (hover to see other rain measurements)
** Current wind speed in m/s (hover to see current wind gust speed)